• In Hungary
  • List of Countries
  • For 7 days
  • Water Temperature
  • Satellite Maps
  • Weather Map
  • News
  • Weather Widgets
  • user-avatar
    Login

    Hourly Weather Dili

    Today, 24 September, Sunday

    Time Temperature Precipitation Wind Pressure Humidity
    00:00 +27°C° 0 mm 1 mps 754 mmHg 80%
    01:00 +27°C° 0 mm 1 mps 754 mmHg 77%
    02:00 +27°C° 0 mm 1 mps 753 mmHg 75%
    03:00 +27°C° 0.1 mm 1 mps 753 mmHg 74%
    04:00 +27°C° 0.1 mm 1 mps 753 mmHg 73%
    05:00 +27°C° 0.1 mm 1 mps 753 mmHg 72%
    06:00 +26°C° 0.4 mm 0 mps 754 mmHg 69%
    07:00 +27°C° 0.4 mm 0 mps 754 mmHg 66%
    08:00 +27°C° 0 mm 0 mps 754 mmHg 65%
    09:00 +30°C° 0.2 mm 1 mps 754 mmHg 60%
    10:00 +31°C° 0.2 mm 1 mps 753 mmHg 56%
    11:00 +32°C° 0.2 mm 2 mps 753 mmHg 51%
    12:00 +32°C° 0 mm 2 mps 753 mmHg 50%
    13:00 +34°C° 0 mm 2 mps 752 mmHg 49%
    14:00 +34°C° 0 mm 3 mps 752 mmHg 48%
    15:00 +32°C° 0 mm 2 mps 752 mmHg 54%
    16:00 +31°C° 0 mm 2 mps 752 mmHg 60%
    17:00 +30°C° 0 mm 2 mps 752 mmHg 67%
    18:00 +29°C° 0 mm 2 mps 752 mmHg 73%
    19:00 +28°C° 0 mm 1 mps 753 mmHg 80%
    20:00 +27°C° 0 mm 1 mps 753 mmHg 86%
    21:00 +27°C° 0 mm 1 mps 753 mmHg 86%
    22:00 +27°C° 0 mm 1 mps 753 mmHg 86%
    23:00 +27°C° 0 mm 1 mps 753 mmHg 86%

    Tomorrow, 25 September, Monday

    Time Temperature Precipitation Wind Pressure Humidity
    00:00 +27°C° 0 mm 1 mps 753 mmHg 87%
    01:00 +27°C° 0 mm 1 mps 753 mmHg 87%
    02:00 +27°C° 0 mm 1 mps 753 mmHg 88%
    03:00 +27°C° 0 mm 1 mps 753 mmHg 88%
    04:00 +27°C° 0 mm 1 mps 753 mmHg 89%
    05:00 +25°C° 0 mm 0 mps 753 mmHg 90%
    06:00 +28°C° 0 mm 1 mps 753 mmHg 80%
    07:00 +30°C° 0 mm 1 mps 753 mmHg 71%
    08:00 +32°C° 0 mm 1 mps 754 mmHg 61%
    09:00 +35°C° 0 mm 2 mps 754 mmHg 54%
    10:00 +36°C° 0 mm 3 mps 753 mmHg 47%
    11:00 +37°C° 0 mm 3 mps 753 mmHg 41%
    12:00 +36°C° 0 mm 3 mps 753 mmHg 45%
    13:00 +36°C° 0 mm 3 mps 752 mmHg 49%
    14:00 +35°C° 0 mm 3 mps 752 mmHg 53%
    15:00 +34°C° 0 mm 2 mps 752 mmHg 58%
    16:00 +31°C° 0 mm 2 mps 752 mmHg 64%
    17:00 +30°C° 0 mm 1 mps 752 mmHg 70%
    18:00 +29°C° 0 mm 1 mps 752 mmHg 75%
    19:00 +29°C° 0 mm 1 mps 753 mmHg 80%
    20:00 +28°C° 0 mm 1 mps 753 mmHg 86%
    21:00 +28°C° 0 mm 1 mps 753 mmHg 86%
    22:00 +27°C° 0 mm 1 mps 754 mmHg 86%
    23:00 +27°C° 0 mm 1 mps 754 mmHg 86%

    Day after tomorrow, 26 September, Tuesday

    Time Temperature Precipitation Wind Pressure Humidity
    00:00 +27°C° 0 mm 1 mps 753 mmHg 87%
    01:00 +27°C° 0 mm 1 mps 753 mmHg 88%
    02:00 +26°C° 0 mm 1 mps 753 mmHg 89%
    03:00 +26°C° 0 mm 1 mps 753 mmHg 89%
    04:00 +26°C° 0 mm 1 mps 753 mmHg 88%
    05:00 +26°C° 0 mm 1 mps 753 mmHg 88%
    06:00 +28°C° 0 mm 1 mps 754 mmHg 73%
    07:00 +31°C° 0 mm 1 mps 754 mmHg 58%
    08:00 +33°C° 0 mm 1 mps 754 mmHg 43%
    09:00 +35°C° 0 mm 2 mps 754 mmHg 38%
    10:00 +37°C° 0 mm 3 mps 754 mmHg 34%
    11:00 +38°C° 0 mm 3 mps 754 mmHg 29%
    12:00 +38°C° 0 mm 3 mps 753 mmHg 32%
    13:00 +37°C° 0 mm 3 mps 753 mmHg 36%
    14:00 +37°C° 0 mm 3 mps 752 mmHg 39%
    15:00 +35°C° 0 mm 3 mps 752 mmHg 46%
    16:00 +34°C° 0 mm 3 mps 752 mmHg 54%
    17:00 +31°C° 0 mm 2 mps 752 mmHg 61%
    18:00 +30°C° 0 mm 2 mps 753 mmHg 69%
    19:00 +28°C° 0 mm 1 mps 753 mmHg 77%
    20:00 +27°C° 0 mm 1 mps 754 mmHg 85%
    21:00 +27°C° 0 mm 1 mps 754 mmHg 85%
    22:00 +27°C° 0 mm 1 mps 754 mmHg 85%
    23:00 +26°C° 0 mm 1 mps 754 mmHg 85%

    27 September, Wednesday

    Time Temperature Precipitation Wind Pressure Humidity
    00:00 +26°C° 0 mm 1 mps 754 mmHg 83%
    01:00 +26°C° 0 mm 1 mps 754 mmHg 82%
    02:00 +26°C° 0 mm 1 mps 753 mmHg 81%
    03:00 +26°C° 0 mm 1 mps 753 mmHg 77%
    04:00 +26°C° 0 mm 1 mps 753 mmHg 74%
    05:00 +26°C° 0 mm 1 mps 754 mmHg 71%
    06:00 +28°C° 0 mm 1 mps 754 mmHg 61%
    07:00 +31°C° 0 mm 1 mps 755 mmHg 51%
    08:00 +33°C° 0 mm 1 mps 755 mmHg 40%
    09:00 +35°C° 0 mm 2 mps 755 mmHg 40%
    10:00 +36°C° 0 mm 3 mps 755 mmHg 39%
    11:00 +37°C° 0 mm 3 mps 754 mmHg 38%
    12:00 +37°C° 0 mm 3 mps 754 mmHg 41%
    13:00 +36°C° 0 mm 3 mps 753 mmHg 44%
    14:00 +36°C° 0 mm 3 mps 752 mmHg 47%
    15:00 +34°C° 0 mm 3 mps 752 mmHg 53%
    16:00 +33°C° 0 mm 3 mps 752 mmHg 60%
    17:00 +31°C° 0 mm 2 mps 752 mmHg 67%
    18:00 +30°C° 0 mm 2 mps 753 mmHg 74%
    19:00 +29°C° 0 mm 1 mps 754 mmHg 81%
    20:00 +27°C° 0 mm 1 mps 754 mmHg 88%
    21:00 +27°C° 0 mm 1 mps 754 mmHg 88%
    22:00 +27°C° 0 mm 1 mps 754 mmHg 88%
    23:00 +27°C° 0 mm 1 mps 754 mmHg 88%

    28 September, Thursday

    Time Temperature Precipitation Wind Pressure Humidity
    00:00 +27°C° 0 mm 1 mps 754 mmHg 86%
    01:00 +26°C° 0 mm 1 mps 753 mmHg 83%
    02:00 +26°C° 0 mm 1 mps 753 mmHg 81%
    03:00 +26°C° 0 mm 1 mps 753 mmHg 76%
    04:00 +26°C° 0 mm 1 mps 753 mmHg 72%
    05:00 +27°C° 0 mm 1 mps 754 mmHg 67%
    06:00 +29°C° 0 mm 1 mps 754 mmHg 56%
    07:00 +31°C° 0 mm 1 mps 754 mmHg 45%
    08:00 +35°C° 0 mm 2 mps 755 mmHg 35%
    09:00 +35°C° 0 mm 2 mps 754 mmHg 35%
    10:00 +36°C° 0 mm 3 mps 754 mmHg 36%
    11:00 +37°C° 0 mm 4 mps 754 mmHg 37%
    12:00 +37°C° 0 mm 4 mps 753 mmHg 40%
    13:00 +36°C° 0 mm 4 mps 752 mmHg 43%
    14:00 +36°C° 0 mm 4 mps 752 mmHg 46%
    15:00 +35°C° 0 mm 3 mps 752 mmHg 54%
    16:00 +33°C° 0 mm 3 mps 752 mmHg 62%
    17:00 +30°C° 0 mm 2 mps 752 mmHg 70%
    18:00 +30°C° 0 mm 2 mps 753 mmHg 77%
    19:00 +29°C° 0 mm 1 mps 753 mmHg 83%
    20:00 +28°C° 0 mm 1 mps 754 mmHg 90%
    21:00 +28°C° 0 mm 1 mps 754 mmHg 90%
    22:00 +27°C° 0 mm 1 mps 754 mmHg 90%
    23:00 +27°C° 0 mm 1 mps 754 mmHg 90%

    29 September, Friday

    Time Temperature Precipitation Wind Pressure Humidity
    00:00 +27°C° 0 mm 1 mps 753 mmHg 90%
    01:00 +27°C° 0 mm 1 mps 753 mmHg 89%
    02:00 +26°C° 0 mm 1 mps 753 mmHg 89%
    03:00 +26°C° 0 mm 1 mps 753 mmHg 86%
    04:00 +24°C° 0 mm 0 mps 753 mmHg 84%
    05:00 +24°C° 0 mm 0 mps 754 mmHg 81%
    06:00 +28°C° 0 mm 1 mps 754 mmHg 68%
    07:00 +31°C° 0 mm 1 mps 755 mmHg 54%
    08:00 +33°C° 0 mm 1 mps 755 mmHg 40%
    09:00 +35°C° 0 mm 2 mps 755 mmHg 38%
    10:00 +37°C° 0 mm 3 mps 754 mmHg 35%
    11:00 +38°C° 0 mm 3 mps 754 mmHg 32%
    12:00 +37°C° 0 mm 3 mps 753 mmHg 37%
    13:00 +36°C° 0 mm 3 mps 753 mmHg 42%
    14:00 +36°C° 0 mm 3 mps 752 mmHg 47%
    15:00 +34°C° 0 mm 3 mps 752 mmHg 53%
    16:00 +32°C° 0 mm 2 mps 752 mmHg 59%
    17:00 +31°C° 0 mm 2 mps 753 mmHg 65%
    18:00 +30°C° 0 mm 2 mps 753 mmHg 71%
    19:00 +28°C° 0 mm 1 mps 754 mmHg 77%
    20:00 +27°C° 0 mm 1 mps 754 mmHg 83%
    21:00 +27°C° 0 mm 1 mps 754 mmHg 83%
    22:00 +27°C° 0 mm 1 mps 754 mmHg 83%
    23:00 +26°C° 0 mm 1 mps 754 mmHg 83%
    Show more